Time,TemperatureF,DewpointF,PressureIn,WindDirection,WindDirectionDegrees,WindSpeedMPH,WindSpeedGustMPH,Humidity,HourlyPrecipIn,Conditions,Clouds,dailyrainin,SoftwareType,DateUTC
2013-01-17 00:02:00,52.0,51.0,29.89,East,89,0.0,2.0,98,0.01,,,0.74,,2013-01-17 06:02:00,
2013-01-17 00:12:00,52.0,51.0,29.89,East,89,0.0,2.0,98,0.01,,,0.74,,2013-01-17 06:12:00,
2013-01-17 00:22:00,52.0,51.0,29.89,ENE,75,0.0,1.0,98,0.01,,,0.73,,2013-01-17 06:22:00,
2013-01-17 00:33:00,53.0,52.0,29.90,WSW,255,1.0,2.0,98,0.01,,,0.73,,2013-01-17 06:33:00,
2013-01-17 00:42:00,53.0,52.0,29.90,WSW,255,1.0,2.0,98,0.01,,,0.73,,2013-01-17 06:42:00,
2013-01-17 00:53:00,53.0,52.0,29.91,WNW,302,3.0,6.0,98,0.00,,,0.73,,2013-01-17 06:53:00,
2013-01-17 01:02:00,52.0,51.0,29.91,WNW,285,3.0,6.0,98,0.00,,,0.73,,2013-01-17 07:02:00,
2013-01-17 01:12:00,52.0,51.0,29.91,WNW,285,3.0,6.0,98,0.00,,,0.73,,2013-01-17 07:12:00,
2013-01-17 01:22:00,51.0,50.0,29.91,West,281,2.0,7.0,98,0.00,,,0.72,,2013-01-17 07:22:00,
2013-01-17 01:33:00,51.0,50.0,29.90,West,270,0.0,5.0,98,0.00,,,0.72,,2013-01-17 07:33:00,
2013-01-17 01:42:00,51.0,50.0,29.90,West,270,0.0,5.0,98,0.00,,,0.72,,2013-01-17 07:42:00,
2013-01-17 01:53:00,51.0,50.0,29.91,WSW,252,2.0,8.0,98,0.00,,,0.72,,2013-01-17 07:53:00,
2013-01-17 02:02:00,50.0,49.0,29.91,WNW,288,4.0,9.0,98,0.00,,,0.72,,2013-01-17 08:02:00,
2013-01-17 02:12:00,50.0,49.0,29.91,WNW,288,4.0,9.0,98,0.00,,,0.72,,2013-01-17 08:12:00,
2013-01-17 02:22:00,49.0,48.0,29.91,WSW,246,3.0,9.0,98,0.00,,,0.72,,2013-01-17 08:22:00,
2013-01-17 02:32:00,48.0,47.0,29.91,WNW,288,3.0,9.0,98,0.00,,,0.72,,2013-01-17 08:32:00,
2013-01-17 02:43:00,48.0,47.0,29.91,WNW,288,3.0,9.0,98,0.00,,,0.72,,2013-01-17 08:43:00,
2013-01-17 02:53:00,48.0,47.0,29.92,West,277,2.0,10.0,98,0.00,,,0.72,,2013-01-17 08:53:00,
2013-01-17 03:03:00,47.0,46.0,29.91,SW,222,3.0,8.0,98,0.01,,,0.73,,2013-01-17 09:03:00,
2013-01-17 03:12:00,47.0,46.0,29.91,SW,222,3.0,8.0,98,0.01,,,0.73,,2013-01-17 09:12:00,
2013-01-17 03:22:00,47.0,46.0,29.91,West,281,2.0,4.0,98,0.01,,,0.73,,2013-01-17 09:22:00,
2013-01-17 03:32:00,47.0,46.0,29.91,West,261,2.0,8.0,98,0.01,,,0.73,,2013-01-17 09:32:00,
2013-01-17 03:42:00,47.0,46.0,29.91,West,261,2.0,8.0,98,0.01,,,0.73,,2013-01-17 09:42:00,
2013-01-17 03:53:00,46.0,45.0,29.90,WNW,288,2.0,7.0,98,0.01,,,0.73,,2013-01-17 09:53:00,
2013-01-17 04:02:00,46.0,45.0,29.91,West,277,3.0,6.0,98,0.00,,,0.73,,2013-01-17 10:02:00,
2013-01-17 04:12:00,46.0,45.0,29.91,West,277,3.0,6.0,98,0.00,,,0.73,,2013-01-17 10:12:00,
2013-01-17 04:22:00,46.0,45.0,29.91,West,276,3.0,7.0,98,0.00,,,0.72,,2013-01-17 10:22:00,
2013-01-17 04:32:00,46.0,45.0,29.90,West,273,2.0,10.0,98,0.00,,,0.72,,2013-01-17 10:32:00,
2013-01-17 04:42:00,46.0,45.0,29.90,West,273,2.0,10.0,98,0.00,,,0.72,,2013-01-17 10:42:00,
2013-01-17 04:53:00,45.0,44.0,29.91,West,272,5.0,12.0,98,0.00,,,0.72,,2013-01-17 10:53:00,
2013-01-17 05:03:00,45.0,44.0,29.92,WSW,243,6.0,12.0,98,0.00,,,0.72,,2013-01-17 11:03:00,
2013-01-17 05:12:00,45.0,44.0,29.92,WSW,243,6.0,12.0,98,0.00,,,0.72,,2013-01-17 11:12:00,
2013-01-17 05:22:00,44.0,43.0,29.93,West,268,6.0,10.0,98,0.00,,,0.72,,2013-01-17 11:22:00,
2013-01-17 05:33:00,44.0,43.0,29.93,WSW,257,4.0,14.0,98,0.00,,,0.72,,2013-01-17 11:33:00,
2013-01-17 05:43:00,44.0,43.0,29.93,WSW,257,4.0,14.0,98,0.00,,,0.72,,2013-01-17 11:43:00,
2013-01-17 05:53:00,44.0,43.0,29.93,SW,228,5.0,13.0,98,0.00,,,0.72,,2013-01-17 11:53:00,
2013-01-17 06:02:00,43.0,42.0,29.95,WNW,284,5.0,11.0,97,0.00,,,0.72,,2013-01-17 12:02:00,
2013-01-17 06:12:00,43.0,42.0,29.95,WNW,284,5.0,11.0,97,0.00,,,0.72,,2013-01-17 12:12:00,
2013-01-17 06:23:00,43.0,42.0,29.95,West,259,6.0,11.0,97,0.00,,,0.72,,2013-01-17 12:23:00,
2013-01-17 06:33:00,42.0,41.0,29.95,WSW,249,4.0,9.0,97,0.00,,,0.72,,2013-01-17 12:33:00,
2013-01-17 06:43:00,42.0,41.0,29.95,WSW,249,4.0,9.0,97,0.00,,,0.72,,2013-01-17 12:43:00,
2013-01-17 06:53:00,42.0,41.0,29.96,West,280,4.0,12.0,97,0.00,,,0.72,,2013-01-17 12:53:00,
2013-01-17 07:03:00,42.0,41.0,29.96,West,276,4.0,7.0,97,0.00,,,0.72,,2013-01-17 13:03:00,
2013-01-17 07:12:00,42.0,41.0,29.96,West,276,4.0,7.0,97,0.00,,,0.72,,2013-01-17 13:12:00,
2013-01-17 07:23:00,41.0,40.0,29.96,West,274,7.0,12.0,96,0.00,,,0.72,,2013-01-17 13:23:00,
2013-01-17 07:33:00,41.0,40.0,29.97,West,281,6.0,13.0,96,0.00,,,0.72,,2013-01-17 13:33:00,
2013-01-17 07:43:00,41.0,40.0,29.97,West,281,6.0,13.0,96,0.00,,,0.72,,2013-01-17 13:43:00,
2013-01-17 07:53:00,41.0,40.0,29.98,WSW,248,4.0,12.0,96,0.00,,,0.72,,2013-01-17 13:53:00,
2013-01-17 08:03:00,41.0,40.0,29.98,WNW,291,5.0,14.0,96,0.00,,,0.72,,2013-01-17 14:03:00,
2013-01-17 08:12:00,41.0,40.0,29.98,WNW,291,5.0,14.0,96,0.00,,,0.72,,2013-01-17 14:12:00,
2013-01-17 08:23:00,41.0,40.0,29.98,WSW,246,4.0,8.0,96,0.00,,,0.72,,2013-01-17 14:23:00,
2013-01-17 08:33:00,40.0,39.0,29.99,West,259,4.0,15.0,96,0.00,,,0.72,,2013-01-17 14:33:00,
2013-01-17 08:43:00,40.0,39.0,29.99,West,259,4.0,15.0,96,0.00,,,0.72,,2013-01-17 14:43:00,
2013-01-17 08:53:00,40.0,39.0,29.99,West,264,4.0,8.0,96,0.00,,,0.72,,2013-01-17 14:53:00,
2013-01-17 09:03:00,40.0,39.0,30.00,West,263,5.0,12.0,95,0.00,,,0.72,,2013-01-17 15:03:00,
2013-01-17 09:12:00,40.0,39.0,30.00,West,263,5.0,12.0,95,0.00,,,0.72,,2013-01-17 15:12:00,
2013-01-17 09:23:00,40.0,38.0,30.01,WSW,255,6.0,13.0,93,0.00,,,0.72,,2013-01-17 15:23:00,
2013-01-17 09:33:00,40.0,38.0,30.01,WSW,255,6.0,13.0,93,0.00,,,0.72,,2013-01-17 15:33:00,
2013-01-17 09:43:00,40.0,38.0,30.01,WSW,255,6.0,13.0,93,0.00,,,0.72,,2013-01-17 15:43:00,
2013-01-17 09:53:00,39.0,37.0,30.02,SSE,166,6.0,17.0,93,0.00,,,0.72,,2013-01-17 15:53:00,
2013-01-17 10:03:00,40.0,38.0,30.01,WSW,257,6.0,17.0,92,0.00,,,0.72,,2013-01-17 16:03:00,
2013-01-17 10:13:00,40.0,38.0,30.01,WSW,257,6.0,17.0,92,0.00,,,0.72,,2013-01-17 16:13:00,
2013-01-17 10:23:00,39.0,37.0,30.01,WSW,255,6.0,15.0,94,0.01,,,0.71,,2013-01-17 16:23:00,
2013-01-17 10:33:00,40.0,38.0,30.01,WNW,297,8.0,15.0,91,0.01,,,0.71,,2013-01-17 16:33:00,
2013-01-17 10:43:00,40.0,38.0,30.01,WNW,297,8.0,15.0,91,0.01,,,0.71,,2013-01-17 16:43:00,
2013-01-17 10:53:00,40.0,38.0,30.01,West,276,5.0,20.0,91,0.01,,,0.71,,2013-01-17 16:53:00,
2013-01-17 11:03:00,40.0,36.0,30.00,WNW,293,6.0,14.0,87,0.01,,,0.71,,2013-01-17 17:03:00,
2013-01-17 11:13:00,40.0,36.0,30.00,WNW,293,6.0,14.0,87,0.01,,,0.71,,2013-01-17 17:13:00,
2013-01-17 11:23:00,40.0,37.0,30.00,WSW,248,7.0,12.0,88,0.00,,,0.68,,2013-01-17 17:23:00,
2013-01-17 11:33:00,40.0,37.0,30.00,WSW,248,7.0,12.0,88,0.00,,,0.68,,2013-01-17 17:33:00,
2013-01-17 11:43:00,40.0,37.0,30.00,WSW,248,7.0,12.0,88,0.00,,,0.68,,2013-01-17 17:43:00,
2013-01-17 11:54:00,39.0,36.0,30.01,WNW,290,8.0,13.0,88,0.00,,,0.68,,2013-01-17 17:54:00,
2013-01-17 12:04:00,39.0,36.0,30.01,WNW,290,8.0,13.0,88,0.00,,,0.68,,2013-01-17 18:04:00,
2013-01-17 12:13:00,39.0,36.0,30.01,WNW,290,8.0,13.0,88,0.00,,,0.68,,2013-01-17 18:13:00,
2013-01-17 12:23:00,37.0,35.0,30.01,West,277,10.0,16.0,91,0.00,,,0.61,,2013-01-17 18:23:00,
2013-01-17 12:33:00,37.0,35.0,30.01,West,273,7.0,15.0,92,0.00,,,0.61,,2013-01-17 18:33:00,
2013-01-17 12:44:00,37.0,35.0,30.01,West,273,7.0,15.0,92,0.00,,,0.61,,2013-01-17 18:44:00,
2013-01-17 12:53:00,37.0,35.0,30.01,West,277,7.0,16.0,91,0.00,,,0.61,,2013-01-17 18:53:00,
2013-01-17 13:03:00,37.0,34.0,30.01,West,276,6.0,13.0,87,0.00,,,0.61,,2013-01-17 19:03:00,
2013-01-17 13:13:00,37.0,34.0,30.01,West,276,6.0,13.0,87,0.00,,,0.61,,2013-01-17 19:13:00,
2013-01-17 13:23:00,37.0,34.0,30.01,West,276,6.0,13.0,87,0.00,,,0.61,,2013-01-17 19:23:00,
2013-01-17 13:33:00,37.0,34.0,30.01,WNW,283,4.0,11.0,90,0.00,,,0.42,,2013-01-17 19:33:00,
2013-01-17 13:43:00,37.0,34.0,30.01,WNW,283,4.0,11.0,90,0.00,,,0.42,,2013-01-17 19:43:00,
2013-01-17 13:54:00,37.0,34.0,30.01,West,269,7.0,19.0,88,0.00,,,0.42,,2013-01-17 19:54:00,
2013-01-17 14:03:00,36.0,33.0,30.02,NW,307,4.0,17.0,90,0.00,,,0.42,,2013-01-17 20:03:00,
2013-01-17 14:13:00,36.0,33.0,30.02,NW,307,4.0,17.0,90,0.00,,,0.42,,2013-01-17 20:13:00,
2013-01-17 14:23:00,36.0,33.0,30.03,West,271,6.0,16.0,89,0.00,,,0.36,,2013-01-17 20:23:00,
2013-01-17 14:33:00,36.0,33.0,30.03,West,274,5.0,12.0,87,0.00,,,0.36,,2013-01-17 20:33:00,
2013-01-17 14:43:00,36.0,33.0,30.03,West,274,5.0,12.0,87,0.00,,,0.36,,2013-01-17 20:43:00,
2013-01-17 14:54:00,37.0,34.0,30.03,West,269,5.0,10.0,87,0.00,,,0.36,,2013-01-17 20:54:00,
2013-01-17 15:03:00,37.0,33.0,30.03,WNW,288,2.0,14.0,86,0.00,,,0.36,,2013-01-17 21:03:00,
2013-01-17 15:13:00,37.0,33.0,30.03,WNW,288,2.0,14.0,86,0.00,,,0.36,,2013-01-17 21:13:00,
2013-01-17 15:23:00,37.0,33.0,30.03,WNW,288,2.0,14.0,86,0.00,,,0.36,,2013-01-17 21:23:00,
2013-01-17 15:34:00,37.0,33.0,30.03,WNW,288,2.0,14.0,86,0.00,,,0.36,,2013-01-17 21:34:00,
2013-01-17 15:43:00,37.0,33.0,30.03,WNW,288,2.0,14.0,86,0.00,,,0.36,,2013-01-17 21:43:00,
2013-01-17 15:53:00,39.0,35.0,30.06,West,280,4.0,13.0,85,0.00,,,0.28,,2013-01-17 21:53:00,
2013-01-17 16:04:00,39.0,35.0,30.07,WNW,300,3.0,12.0,86,0.00,,,0.28,,2013-01-17 22:04:00,
2013-01-17 16:12:00,39.0,35.0,30.07,WNW,300,3.0,12.0,86,0.00,,,0.28,,2013-01-17 22:12:00,
2013-01-17 16:23:00,39.0,35.0,30.07,WNW,288,4.0,14.0,86,0.00,,,0.13,,2013-01-17 22:23:00,
2013-01-17 16:33:00,40.0,36.0,30.08,West,276,5.0,12.0,84,0.00,,,0.13,,2013-01-17 22:33:00,
2013-01-17 16:43:00,40.0,36.0,30.08,West,276,5.0,12.0,84,0.00,,,0.13,,2013-01-17 22:43:00,
2013-01-17 16:53:00,40.0,36.0,30.09,WNW,287,5.0,9.0,85,0.00,,,0.13,,2013-01-17 22:53:00,
2013-01-17 17:03:00,40.0,36.0,30.10,West,277,5.0,12.0,86,0.00,,,0.13,,2013-01-17 23:03:00,
2013-01-17 17:12:00,40.0,36.0,30.10,West,277,5.0,12.0,86,0.00,,,0.13,,2013-01-17 23:12:00,
2013-01-17 17:23:00,40.0,36.0,30.11,West,268,4.0,15.0,86,0.00,,,0.12,,2013-01-17 23:23:00,
2013-01-17 17:33:00,40.0,36.0,30.13,WNW,287,7.0,14.0,85,0.00,,,0.12,,2013-01-17 23:33:00,
2013-01-17 17:43:00,40.0,36.0,30.13,WNW,287,7.0,14.0,85,0.00,,,0.12,,2013-01-17 23:43:00,
2013-01-17 17:53:00,40.0,36.0,30.14,NW,314,5.0,14.0,86,0.00,,,0.12,,2013-01-17 23:53:00,
2013-01-17 18:03:00,40.0,36.0,30.14,West,262,5.0,14.0,86,0.00,,,0.12,,2013-01-18 00:03:00,
2013-01-17 18:12:00,40.0,36.0,30.14,West,262,5.0,14.0,86,0.00,,,0.12,,2013-01-18 00:12:00,
2013-01-17 18:23:00,40.0,36.0,30.16,West,269,4.0,10.0,86,0.00,,,0.12,,2013-01-18 00:23:00,
2013-01-17 18:33:00,40.0,36.0,30.16,West,269,4.0,10.0,86,0.00,,,0.12,,2013-01-18 00:33:00,
2013-01-17 18:43:00,40.0,36.0,30.17,West,269,4.0,13.0,86,0.00,,,0.12,,2013-01-18 00:43:00,
2013-01-17 18:53:00,40.0,36.0,30.18,West,265,4.0,11.0,86,0.00,,,0.12,,2013-01-18 00:53:00,
2013-01-17 19:03:00,40.0,36.0,30.19,West,262,3.0,11.0,85,0.00,,,0.12,,2013-01-18 01:03:00,
2013-01-17 19:13:00,40.0,36.0,30.19,West,262,3.0,11.0,85,0.00,,,0.12,,2013-01-18 01:13:00,
2013-01-17 19:23:00,40.0,36.0,30.20,West,269,3.0,10.0,85,0.00,,,0.12,,2013-01-18 01:23:00,
2013-01-17 19:33:00,40.0,36.0,30.20,WNW,285,3.0,10.0,85,0.00,,,0.12,,2013-01-18 01:33:00,
2013-01-17 19:43:00,40.0,36.0,30.20,WNW,285,3.0,10.0,85,0.00,,,0.12,,2013-01-18 01:43:00,
2013-01-17 19:53:00,40.0,36.0,30.21,SSW,194,2.0,13.0,86,0.00,,,0.12,,2013-01-18 01:53:00,
2013-01-17 20:03:00,39.0,35.0,30.21,West,267,1.0,5.0,87,0.00,,,0.12,,2013-01-18 02:03:00,
2013-01-17 20:12:00,39.0,35.0,30.21,West,267,1.0,5.0,87,0.00,,,0.12,,2013-01-18 02:12:00,
2013-01-17 20:23:00,39.0,35.0,30.21,West,274,2.0,5.0,87,0.00,,,0.10,,2013-01-18 02:23:00,
2013-01-17 20:33:00,39.0,36.0,30.21,WNW,283,2.0,7.0,88,0.00,,,0.10,,2013-01-18 02:33:00,
2013-01-17 20:43:00,39.0,36.0,30.21,WNW,283,2.0,7.0,88,0.00,,,0.10,,2013-01-18 02:43:00,
2013-01-17 20:53:00,39.0,36.0,30.20,WSW,256,3.0,9.0,88,0.00,,,0.10,,2013-01-18 02:53:00,
2013-01-17 21:02:00,39.0,36.0,30.21,WNW,300,4.0,10.0,88,0.00,,,0.10,,2013-01-18 03:02:00,
2013-01-17 21:12:00,39.0,36.0,30.21,WNW,300,4.0,10.0,88,0.00,,,0.10,,2013-01-18 03:12:00,
2013-01-17 21:23:00,39.0,36.0,30.21,WNW,300,4.0,10.0,88,0.00,,,0.10,,2013-01-18 03:23:00,
2013-01-17 21:33:00,39.0,36.0,30.20,West,277,2.0,7.0,88,0.00,,,0.08,,2013-01-18 03:33:00,
2013-01-17 21:42:00,39.0,36.0,30.20,West,277,2.0,7.0,88,0.00,,,0.08,,2013-01-18 03:42:00,
2013-01-17 21:53:00,39.0,36.0,30.20,WSW,256,4.0,7.0,88,0.00,,,0.08,,2013-01-18 03:53:00,
2013-01-17 22:02:00,39.0,36.0,30.21,West,263,2.0,8.0,88,0.00,,,0.08,,2013-01-18 04:02:00,
2013-01-17 22:12:00,39.0,36.0,30.21,West,263,2.0,8.0,88,0.00,,,0.08,,2013-01-18 04:12:00,
2013-01-17 22:22:00,39.0,36.0,30.21,West,263,2.0,8.0,88,0.00,,,0.08,,2013-01-18 04:22:00,
2013-01-17 22:33:00,39.0,35.0,30.22,SSW,211,1.0,6.0,87,0.00,,,0.05,,2013-01-18 04:33:00,
2013-01-17 22:42:00,39.0,35.0,30.22,SSW,211,1.0,6.0,87,0.00,,,0.05,,2013-01-18 04:42:00,
2013-01-17 22:53:00,39.0,35.0,30.22,West,280,1.0,6.0,87,0.00,,,0.05,,2013-01-18 04:53:00,
2013-01-17 23:04:00,39.0,35.0,30.22,South,180,1.0,7.0,87,0.00,,,0.05,,2013-01-18 05:04:00,
2013-01-17 23:12:00,39.0,35.0,30.22,South,180,1.0,7.0,87,0.00,,,0.05,,2013-01-18 05:12:00,
2013-01-17 23:22:00,39.0,35.0,30.22,WSW,238,1.0,6.0,86,0.00,,,0.03,,2013-01-18 05:22:00,
2013-01-17 23:33:00,39.0,35.0,30.22,ENE,70,1.0,10.0,86,0.00,,,0.03,,2013-01-18 05:33:00,
2013-01-17 23:42:00,39.0,35.0,30.22,ENE,70,1.0,10.0,86,0.00,,,0.03,,2013-01-18 05:42:00,
2013-01-17 23:53:00,39.0,35.0,30.23,West,273,1.0,8.0,86,0.00,,,0.03,,2013-01-18 05:53:00,